カタログに戻る

OPS 4682 DEB

運用中PO
NORAD 38404·DEBRIS·🇺🇸 United States

打ち上げ Apr 3, 1965 から Vandenberg Space Force Base

Loading…

次のパス (今後24時間)

TLE

最新Source: Space-Track

元期: Sep 14, 2026, 06:35 UTC

1 38404U 65027DH  26257.27494690 -.00000177  00000-0 -61604-3 0  9999
2 38404  90.2483   8.3128 0021195  72.2682 288.0751 12.99776419676391

AllMySatでOPS 4682 DEBをリアルタイム追跡

Download on the App Store